{"data":{"norad_id":67221,"epoch":"2026-05-25T04:33:38.801088Z","epoch_age_seconds":48693,"freshness":"FRESH","line1":"1 67221U 25305C   26145.19003242  .00006749  00000+0  43829-3 0  9996","line2":"2 67221  45.0022 205.5967 0004030  21.7693 338.3353 15.08726186 23841","mean_motion":15.08726186,"eccentricity":0.000403,"inclination_deg":45.0022,"raan_deg":205.5967,"arg_perigee_deg":21.7693,"mean_anomaly_deg":338.3353,"bstar":0.00043829,"rev_number":2384,"period_min":95.444754214666,"perigee_km":537.30324869664,"apogee_km":542.87934070217,"semimajor_km":6918.2282946994,"source":"CELESTRAK","updated_at":"2026-05-25T13:38:06.819531Z"}}